FW7989 Weather Reports


time (UTC)temp
F
wind
direction
speed
knots
gust
knots
rain 1hr
in
rain 24hr
in
rain mn
in
humidity
%
barometer
mb
20260901133558 71 288 7.0 13.9 0.00 0.00 0.00 62 1021.0
20260901133106 71 304 6.1 13.0 0.00 0.00 0.00 64 1021.0
20260901132557 71 274 6.1 11.3 0.00 0.00 0.00 65 1020.9
20260901132059 71 296 6.1 10.4 0.00 0.00 0.00 63 1021.0
20260901131601 71 297 7.0 12.2 0.00 0.00 0.00 62 1021.0
20260901131100 71 296 6.1 12.2 0.00 0.00 0.00 60 1020.8
20260901130559 71 315 6.1 12.2 0.00 0.00 0.00 63 1020.9
20260901130107 70 297 7.8 12.2 0.00 0.00 0.00 64 1021.0
20260901125602 71 250 6.1 11.3 0.00 0.00 0.00 64 1021.0
20260901125101 71 319 6.1 11.3 0.00 0.00 0.00 63 1021.1
20260901124608 71 301 2.6 10.4 0.00 0.00 0.00 64 1021.0
20260901124059 72 226 6.1 10.4 0.00 0.00 0.00 61 1021.1
20260901123559 72 292 4.3 10.4 0.00 0.00 0.00 61 1021.0
20260901123102 72 265 3.5 10.4 0.00 0.00 0.00 61 1021.0
20260901122558 72 300 4.3 9.6 0.00 0.00 0.00 63 1021.1
20260901122058 71 255 5.2 10.4 0.00 0.00 0.00 59 1021.0
20260901121559 71 236 6.1 10.4 0.00 0.00 0.00 60 1021.0
20260901121059 71 301 3.5 8.7 0.00 0.00 0.00 62 1020.8
20260901120602 71 346 5.2 9.6 0.00 0.00 0.00 61 1020.9
20260901120109 70 298 4.3 9.6 0.00 0.00 0.00 64 1021.0
20260901115558 71 316 5.2 11.3 0.00 0.00 0.00 61 1021.1
20260901115059 71 294 5.2 12.2 0.00 0.00 0.00 64 1021.1
20260901114602 70 5 5.2 12.2 0.00 0.00 0.00 65 1021.1
20260901114059 70 290 5.2 10.4 0.00 0.00 0.00 66 1021.1
20260901113559 69 304 5.2 9.6 0.00 0.00 0.00 67 1021.2
20260901113102 68 315 5.2 9.6 0.00 0.00 0.00 67 1021.2
20260901112558 68 274 4.3 11.3 0.00 0.00 0.00 65 1021.3
20260901112056 68 276 4.3 11.3 0.00 0.00 0.00 67 1021.2
20260901111603 68 271 4.3 12.2 0.00 0.00 0.00 66 1021.3
20260901111058 68 217 4.3 12.2 0.00 0.00 0.00 68 1021.3
20260901110555 68 298 5.2 9.6 0.00 0.00 0.00 68 1021.3
20260901110104 68 231 4.3 12.2 0.00 0.00 0.00 66 1021.4
20260901105559 68 274 4.3 12.2 0.00 0.00 0.00 67 1021.2
20260901105104 68 228 4.3 11.3 0.00 0.00 0.00 67 1021.2
20260901104603 68 284 6.1 11.3 0.00 0.00 0.00 66 1021.3
20260901104059 68 230 5.2 11.3 0.00 0.00 0.00 66 1021.2
20260901103559 68 287 4.3 10.4 0.00 0.00 0.00 68 1021.2
20260901103100 68 264 4.3 10.4 0.00 0.00 0.00 70 1021.3
20260901102559 68 234 4.3 10.4 0.00 0.00 0.00 70 1021.1
20260901102059 67 301 7.0 10.4 0.00 0.00 0.00 68 1021.4
20260901101610 67 253 5.2 10.4 0.00 0.00 0.00 69 1021.4
20260901101058 67 300 4.3 8.7 0.00 0.00 0.00 70 1021.4
20260901100558 67 258 2.6 7.0 0.00 0.00 0.00 69 1021.3
20260901100107 67 282 3.5 7.0 0.00 0.00 0.00 71 1021.4
20260901095558 67 216 1.7 7.0 0.00 0.00 0.00 70 1021.4
20260901095057 67 247 2.6 7.0 0.00 0.00 0.00 70 1021.3
20260901094609 67 223 2.6 7.0 0.00 0.00 0.00 70 1021.4
20260901094102 67 300 1.7 8.7 0.00 0.00 0.00 69 1021.5
20260901093559 67 277 3.5 8.7 0.00 0.00 0.00 69 1021.5
20260901093103 67 215 3.5 7.8 0.00 0.00 0.00 72 1021.5
20260901092556 67 277 3.5 8.7 0.00 0.00 0.00 72 1021.4
20260901092102 67 290 4.3 8.7 0.00 0.00 0.00 73 1021.4
20260901091604 66 221 2.6 8.7 0.00 0.00 0.00 74 1021.5
20260901091058 66 247 1.7 6.1 0.00 0.00 0.00 75 1021.5
20260901090558 66 191 2.6 6.1 0.00 0.00 0.00 75 1021.4
20260901090108 66 198 2.6 7.0 0.00 0.00 0.00 75 1021.3
20260901085601 65 167 1.7 7.0 0.00 0.00 0.00 75 1021.2
20260901085101 65 149 2.6 6.1 0.00 0.00 0.00 76 1021.4
20260901084611 65 194 1.7 6.1 0.00 0.00 0.00 77 1021.4
20260901084101 65 158 3.5 6.1 0.00 0.00 0.00 76 1021.3
20260901083601 64 169 1.7 6.1 0.00 0.00 0.00 79 1021.3
20260901083114 64 190 1.7 6.1 0.00 0.00 0.00 78 1021.3
20260901082558 63 192 2.6 7.0 0.00 0.00 0.00 78 1021.4
20260901082101 63 175 2.6 7.0 0.00 0.00 0.00 79 1021.4
20260901081615 62 132 3.5 7.0 0.00 0.00 0.00 80 1021.4
20260901081100 62 136 2.6 6.1 0.00 0.00 0.00 81 1021.4
20260901080600 61 140 2.6 6.1 0.00 0.00 0.00 82 1021.3
20260901080118 61 129 0.9 6.1 0.00 0.00 0.00 82 1021.4
20260901075601 60 153 1.7 6.1 0.00 0.00 0.00 83 1021.4
20260901075059 59 148 3.5 6.1 0.00 0.00 0.00 84 1021.3
20260901074610 58 115 0.9 5.2 0.00 0.00 0.00 85 1021.3
20260901074100 58 111 1.7 5.2 0.00 0.00 0.00 85 1021.2
20260901073558 58 98 1.7 5.2 0.00 0.00 0.00 85 1021.2
20260901073109 58 65 2.6 5.2 0.00 0.00 0.00 85 1021.3
20260901072600 58 148 1.7 5.2 0.00 0.00 0.00 86 1021.2
20260901072103 58 142 1.7 7.0 0.00 0.00 0.00 85 1021.1
20260901071614 58 139 2.6 7.0 0.00 0.00 0.00 85 1021.3
20260901071059 58 147 2.6 7.0 0.00 0.00 0.00 85 1021.1
20260901070558 58 188 2.6 7.0 0.00 0.00 0.00 85 1021.1
20260901070123 57 131 2.6 7.0 0.00 0.00 0.00 87 1021.1
20260901065602 56 139 3.5 7.0 0.00 0.00 0.00 88 1021.1
20260901065100 56 163 0.9 5.2 0.00 0.00 0.00 88 1021.1
20260901064601 56 150 0.9 6.1 0.00 0.00 0.00 87 1021.2
20260901064058 55 132 2.6 6.1 0.00 0.00 0.00 88 1021.2
20260901063601 55 140 1.7 6.1 0.00 0.00 0.00 88 1021.1
20260901063105 55 120 1.7 5.2 0.00 0.00 0.00 88 1021.0
20260901062601 55 0 1.7 5.2 0.00 0.00 0.00 88 1021.0
20260901062102 55 109 1.7 4.3 0.00 0.00 0.00 88 1021.0
20260901061607 55 169 0.0 5.2 0.00 0.00 0.00 88 1020.9
20260901061059 55 115 1.7 5.2 0.00 0.00 0.00 88 1020.8
20260901060601 55 139 0.9 3.5 0.00 0.00 0.00 89 1020.8
20260901060110 55 154 0.9 5.2 0.00 0.00 0.00 89 1020.7
20260901055601 55 178 1.7 5.2 0.00 0.00 0.00 89 1020.6
20260901055101 55 72 0.9 3.5 0.00 0.00 0.00 89 1020.6
20260901054605 55 0 0.0 0.0 0.00 0.00 0.00 89 1020.6
20260901054059 55 0 0.0 1.7 0.00 0.00 0.00 88 1020.5
20260901053603 55 0 0.0 1.7 0.00 0.00 0.00 88 1020.5
20260901053129 55 78 0.9 3.5 0.00 0.00 0.00 88 1020.6
20260901052558 55 82 0.9 3.5 0.00 0.00 0.00 88 1020.6
20260901052100 55 59 0.0 2.6 0.00 0.00 0.00 88 1020.6
20260901051612 55 0 0.0 2.6 0.00 0.00 0.00 88 1020.6
20260901051101 55 0 0.0 2.6 0.00 0.00 0.00 88 1020.4
20260901050602 55 94 0.9 3.5 0.00 0.00 0.00 88 1020.4
20260901050105 55 0 0.0 3.5 0.00 0.00 0.00 87 1020.4
20260901045558 55 72 1.7 7.0 0.00 0.14 0.00 86 1020.4
20260901045058 56 58 1.7 7.0 0.00 0.13 0.00 86 1020.5
20260901044613 56 344 0.0 7.0 0.00 0.13 0.00 87 1020.5
20260901044058 56 0 3.5 7.0 0.00 0.13 0.00 87 1020.4
20260901043559 56 59 1.7 7.0 0.00 0.13 0.00 85 1020.3
20260901043103 56 149 1.7 7.0 0.00 0.13 0.00 85 1020.2
20260901042604 56 123 3.5 7.0 0.00 0.13 0.00 85 1020.2
20260901042102 56 132 1.7 7.0 0.00 0.13 0.00 85 1020.3
20260901041607 56 81 2.6 7.0 0.00 0.13 0.00 85 1020.2
20260901041102 56 127 2.6 7.0 0.00 0.13 0.00 85 1020.2
20260901040600 56 130 2.6 7.0 0.00 0.13 0.00 85 1020.1
20260901040114 56 154 3.5 7.0 0.00 0.13 0.00 85 1020.2
20260901035603 56 143 2.6 7.0 0.00 0.21 0.00 85 1020.2
20260901035101 56 143 2.6 7.0 0.00 0.21 0.00 84 1020.3
20260901034612 56 162 3.5 7.0 0.00 0.21 0.00 84 1020.2
20260901034103 56 92 2.6 7.0 0.00 0.21 0.00 85 1020.3
20260901033558 56 99 1.7 4.3 0.00 0.21 0.00 84 1020.3
20260901033103 56 112 1.7 4.3 0.00 0.21 0.00 84 1020.2
20260901032601 56 136 1.7 4.3 0.00 0.21 0.00 85 1020.2
20260901032100 56 134 1.7 3.5 0.00 0.21 0.00 84 1020.1
20260901031602 56 119 0.9 3.5 0.00 0.21 0.00 84 1020.3
20260901031100 56 93 1.7 5.2 0.00 0.21 0.00 85 1020.2
20260901030600 55 117 1.7 5.2 0.00 0.21 0.00 85 1020.2
20260901030104 55 142 2.6 6.1 0.00 0.21 0.00 85 1020.1
20260901025600 55 136 1.7 7.0 0.00 0.61 0.00 85 1020.2
20260901025100 55 135 3.5 7.0 0.00 0.61 0.00 84 1020.2
20260901024600 55 142 2.6 7.0 0.00 0.61 0.00 84 1020.2
20260901024058 55 101 2.6 6.1 0.00 0.61 0.00 84 1020.1
20260901023601 55 142 1.7 4.3 0.00 0.61 0.00 84 1020.3
20260901023109 55 131 0.9 4.3 0.00 0.61 0.00 84 1020.2
20260901022558 55 166 1.7 3.5 0.00 0.61 0.00 85 1020.3
20260901022100 55 155 0.9 2.6 0.00 0.61 0.00 85 1020.3
20260901021602 55 128 0.0 2.6 0.00 0.61 0.00 86 1020.3
20260901021058 55 114 0.9 2.6 0.00 0.61 0.00 86 1020.3
20260901020557 55 114 0.0 1.7 0.00 0.61 0.00 86 1020.5
20260901020101 55 114 0.0 1.7 0.00 0.61 0.00 85 1020.5
20260901015556 55 114 0.0 1.7 0.00 0.70 0.00 85 1020.4
20260901015058 55 0 0.0 1.7 0.00 0.70 0.00 83 1020.3
20260901014602 56 0 0.0 2.6 0.00 0.70 0.00 84 1020.3
20260901014057 56 119 0.9 2.6 0.00 0.70 0.00 84 1020.3
20260901013557 56 153 0.0 1.7 0.00 0.70 0.00 84 1020.4
20260901013104 56 0 0.0 3.5 0.00 0.70 0.00 84 1020.3
20260901012603 56 153 0.0 5.2 0.00 0.70 0.00 84 1020.3
20260901012058 56 153 1.7 5.2 0.00 0.70 0.00 85 1020.3
20260901011609 55 132 1.7 4.3 0.00 0.70 0.00 85 1020.3
20260901011058 55 101 0.9 2.6 0.00 0.70 0.00 85 1020.2
20260901010600 55 90 0.9 2.6 0.00 0.70 0.00 85 1020.2
20260901010107 55 0 0.9 2.6 0.00 0.70 0.00 84 1020.3
20260901005558 55 83 0.9 2.6 0.00 0.72 0.00 85 1020.3
20260901005058 55 101 0.0 1.7 0.00 0.72 0.00 84 1020.1
20260901004608 55 114 0.0 1.7 0.00 0.72 0.00 81 1020.2
20260901004055 56 0 0.0 1.7 0.00 0.72 0.00 82 1020.2
20260901003556 56 114 0.0 1.7 0.00 0.72 0.00 82 1020.1
20260901003100 56 0 0.9 1.7 0.00 0.72 0.00 81 1020.2
20260901002556 57 114 0.0 2.6 0.00 0.72 0.00 80 1020.2
20260901002057 57 0 0.0 2.6 0.00 0.72 0.00 80 1020.2
20260901001603 57 114 0.9 2.6 0.00 0.72 0.00 79 1020.1
20260901001056 58 137 0.9 2.6 0.00 0.72 0.00 79 1020.1
20260901000556 58 0 0.0 1.7 0.00 0.72 0.00 78 1020.2
20260901000108 59 350 0.0 2.6 0.00 0.72 0.00 78 1020.2
20260831235556 59 0 0.0 2.6 0.00 0.72 0.00 78 1020.2
20260831235056 59 352 0.0 2.6 0.00 0.72 0.00 78 1020.2
20260831234559 59 0 0.9 3.5 0.00 0.72 0.00 78 1020.3
20260831234058 59 0 1.7 3.5 0.00 0.72 0.00 78 1020.3
20260831233559 59 346 1.7 4.3 0.00 0.72 0.00 77 1020.3
20260831233103 58 338 1.7 4.3 0.00 0.72 0.00 77 1020.3
20260831232558 58 360 1.7 2.6 0.00 0.72 0.00 78 1020.2
20260831232059 58 352 0.9 2.6 0.00 0.72 0.00 78 1020.3
20260831231604 58 344 0.9 2.6 0.00 0.72 0.00 77 1020.2
20260831231058 58 352 0.9 2.6 0.00 0.72 0.00 76 1020.2
20260831230558 59 329 0.9 2.6 0.00 0.72 0.00 75 1020.2
20260831230114 59 336 0.9 7.0 0.00 0.72 0.00 75 1020.2
20260831225602 59 334 0.9 7.0 0.00 0.73 0.72 74 1020.2
20260831225058 59 348 1.7 4.3 0.00 0.73 0.72 74 1020.2
20260831224601 60 342 0.9 7.0 0.00 0.73 0.72 73 1020.1
20260831224059 60 326 1.7 7.0 0.00 0.73 0.72 73 1020.0
20260831223603 60 348 1.7 5.2 0.00 0.73 0.72 73 1020.1
20260831223106 60 289 2.6 7.0 0.00 0.73 0.72 72 1020.1
20260831222559 60 331 2.6 7.0 0.00 0.73 0.72 72 1020.1
20260831222059 61 316 2.6 7.8 0.00 0.73 0.72 72 1020.0
20260831221607 61 325 3.5 7.8 0.00 0.73 0.72 72 1020.0
20260831221058 61 334 3.5 8.7 0.00 0.73 0.72 72 1020.0
20260831220601 61 296 4.3 9.6 0.00 0.73 0.72 72 1020.1
20260831220131 62 327 4.3 9.6 0.00 0.73 0.72 72 1020.1
20260831215600 62 315 4.3 12.2 0.00 0.77 0.72 71 1020.0
20260831215100 62 323 4.3 12.2 0.00 0.77 0.72 71 1020.0
20260831214606 62 311 5.2 12.2 0.00 0.77 0.72 72 1019.9
20260831214058 62 319 6.1 10.4 0.00 0.77 0.72 72 1020.0
20260831213600 62 327 5.2 9.6 0.00 0.77 0.72 71 1019.8
20260831213128 62 304 5.2 12.2 0.00 0.77 0.72 71 1019.8
20260831212559 62 296 6.1 12.2 0.00 0.77 0.72 71 1019.8
20260831212101 62 308 7.0 14.8 0.00 0.77 0.72 70 1019.9
20260831211621 62 309 7.0 14.8 0.00 0.77 0.72 70 1019.8
20260831211057 62 292 7.0 14.8 0.00 0.77 0.72 70 1019.7
20260831210557 62 281 7.8 13.9 0.00 0.77 0.72 70 1019.7
20260831205558 61 283 6.1 13.0 0.00 0.77 0.72 69 1019.7
20260831205059 62 250 7.0 13.0 0.00 0.77 0.72 69 1019.7
20260831204602 62 309 7.8 12.2 0.00 0.77 0.72 70 1019.7
20260831204059 61 290 7.0 13.0 0.00 0.77 0.72 70 1019.7
20260831203559 62 294 7.0 13.0 0.00 0.77 0.72 70 1019.7
20260831203117 62 287 6.1 13.0 0.00 0.77 0.72 68 1019.6
20260831202600 62 281 7.8 13.0 0.00 0.77 0.72 69 1019.6
20260831202056 62 286 7.0 13.0 0.00 0.77 0.72 71 1019.5
20260831201604 62 286 7.0 12.2 0.00 0.77 0.72 71 1019.4
20260831201056 62 292 7.8 13.0 0.00 0.77 0.72 71 1019.5
20260831200558 62 279 7.8 14.8 0.00 0.77 0.72 71 1019.4
20260831200106 62 297 6.1 14.8 0.00 0.77 0.72 71 1019.4
20260831195558 62 307 7.0 14.8 0.00 0.77 0.72 70 1019.3
20260831195058 62 297 7.0 14.8 0.00 0.77 0.72 71 1019.4
20260831194610 62 292 7.0 14.8 0.00 0.77 0.72 71 1019.2
20260831194058 62 271 7.8 14.8 0.00 0.77 0.72 71 1019.3
20260831193557 62 273 7.8 13.9 0.00 0.77 0.72 71 1019.1
20260831193104 62 333 7.0 13.9 0.00 0.77 0.72 71 1019.1
20260831192555 62 286 7.8 16.5 0.00 0.77 0.72 70 1018.9
20260831192059 62 285 7.0 16.5 0.00 0.77 0.72 71 1018.9
20260831191604 62 289 8.7 13.9 0.00 0.77 0.72 71 1018.9
20260831191102 62 292 7.8 16.5 0.00 0.77 0.72 71 1018.9
20260831190559 62 252 6.1 16.5 0.00 0.77 0.72 71 1018.9
20260831190111 62 360 8.7 15.6 0.00 0.77 0.72 70 1018.8
20260831185558 62 284 7.0 15.6 0.00 0.77 0.72 70 1018.8
20260831185058 62 278 7.0 13.0 0.00 0.77 0.72 70 1018.8
20260831184606 62 273 7.0 17.4 0.00 0.77 0.72 68 1018.7
20260831184057 63 306 7.8 17.4 0.00 0.77 0.72 67 1018.6
20260831183559 63 240 7.8 17.4 0.00 0.77 0.72 67 1018.7
20260831183108 63 298 8.7 13.9 0.00 0.77 0.72 67 1018.5
20260831182556 63 300 7.8 13.9 0.00 0.77 0.72 68 1018.5
20260831182059 63 292 7.0 17.4 0.00 0.77 0.72 67 1018.5
20260831181604 64 277 7.0 17.4 0.00 0.77 0.72 68 1018.6
20260831181059 64 254 9.6 17.4 0.00 0.77 0.72 67 1018.4
20260831180558 63 303 7.8 13.9 0.00 0.77 0.72 68 1018.3
20260831180109 63 292 7.8 13.9 0.00 0.77 0.72 67 1018.4
20260831175558 63 306 7.8 16.5 0.00 0.81 0.72 67 1018.2
20260831175058 64 277 7.0 16.5 0.00 0.81 0.72 66 1018.2
20260831174601 64 277 6.1 12.2 0.00 0.81 0.72 68 1018.2
20260831174101 64 292 6.1 12.2 0.00 0.81 0.72 68 1018.1
20260831173556 64 286 5.2 15.6 0.00 0.81 0.72 68 1018.1
20260831173104 64 291 7.0 15.6 0.00 0.81 0.72 67 1018.1
20260831172558 64 290 8.7 14.8 0.00 0.81 0.72 68 1017.9
20260831172102 64 296 6.1 14.8 0.00 0.81 0.72 68 1018.0
20260831171605 64 290 7.0 14.8 0.00 0.81 0.72 68 1018.1
20260831171058 65 245 7.0 14.8 0.00 0.81 0.72 67 1018.0
20260831170558 65 279 7.0 14.8 0.00 0.81 0.72 67 1018.0
20260831170104 65 295 7.8 15.6 0.00 0.81 0.72 68 1018.1
20260831165559 65 268 9.6 15.6 0.00 0.83 0.72 68 1018.0
20260831165057 65 290 9.6 15.6 0.00 0.83 0.72 67 1018.0
20260831164635 65 313 7.0 17.4 0.00 0.83 0.72 69 1017.9
20260831164058 65 315 9.6 17.4 0.00 0.83 0.72 69 1017.8
20260831163558 65 261 9.6 16.5 0.00 0.83 0.72 69 1017.8
20260831163103 66 297 7.8 16.5 0.00 0.83 0.72 68 1017.8
20260831162603 66 293 8.7 15.6 0.00 0.83 0.72 69 1017.8
20260831162102 65 319 9.6 17.4 0.00 0.83 0.72 69 1017.8
20260831161614 65 293 7.8 17.4 0.00 0.83 0.72 68 1017.8
20260831161101 65 240 10.4 18.2 0.00 0.83 0.72 69 1017.8
20260831160603 66 316 10.4 18.2 0.00 0.83 0.72 70 1017.7
20260831160103 65 324 9.6 19.1 0.00 0.83 0.72 70 1017.7
20260831155601 65 282 11.3 19.1 0.00 0.83 0.72 69 1017.6
20260831155101 66 296 11.3 19.1 0.00 0.83 0.72 69 1017.6
20260831154634 67 262 9.6 19.1 0.00 0.83 0.72 70 1017.6
20260831154059 67 262 11.3 17.4 0.00 0.83 0.72 71 1017.6
20260831153602 66 317 11.3 20.9 0.00 0.83 0.72 70 1017.4
20260831153107 66 298 10.4 20.9 0.00 0.83 0.72 71 1017.5
20260831152558 66 252 9.6 20.9 0.00 0.83 0.72 71 1017.5
20260831152101 67 301 7.8 20.0 0.00 0.83 0.72 69 1017.3
20260831151616 67 286 9.6 18.2 0.00 0.83 0.72 68 1017.4
20260831151057 67 262 9.6 20.9 0.00 0.83 0.72 67 1017.4
20260831150558 67 278 11.3 20.9 0.00 0.83 0.72 67 1017.2
20260831150104 68 282 10.4 18.2 0.00 0.83 0.72 65 1017.1
20260831145602 69 296 10.4 20.0 0.00 0.83 0.72 66 1017.0
20260831145057 69 271 9.6 20.0 0.00 0.83 0.72 63 1017.0
20260831144626 70 292 13.0 20.9 0.00 0.83 0.72 62 1016.8
20260831144058 70 309 11.3 20.9 0.00 0.83 0.72 65 1016.8
20260831143558 70 302 9.6 17.4 0.00 0.83 0.72 66 1016.8
20260831143116 69 267 11.3 19.1 0.00 0.83 0.72 67 1016.8
20260831142559 69 273 11.3 21.7 0.00 0.83 0.72 67 1016.8
20260831142102 70 277 10.4 21.7 0.00 0.83 0.72 68 1016.8
20260831141624 70 284 7.8 16.5 0.00 0.83 0.72 69 1016.7
20260831141102 68 277 9.6 16.5 0.00 0.83 0.72 69 1016.7
20260831140559 68 274 9.6 16.5 0.00 0.83 0.72 73 1016.5
20260831135558 68 288 9.6 17.4 0.00 0.83 0.72 70 1016.6
20260831135058 68 252 7.0 17.4 0.00 0.83 0.72 68 1016.5
20260831134600 69 277 7.0 17.4 0.00 0.83 0.72 68 1016.4
20260831134057 68 290 9.6 20.9 0.00 0.83 0.72 69 1016.3